This demonstration page uses our WeatherBlox Daily Observations layout. Learn more.

Left ArrowRight Arrow

39.92423, -83.80882

Hourly Observations for May 14, 2020

Temp ( °F °C ) Dew Point ( °F °C ) Humidity (%) Winds ( mph kmh ) Pressure ( in mb ) Visibility ( mi km ) Precip ( " mm )
12:36 am 00:36 Cloudy 54 12 45 7 72 72 SSE 8 13 30.18 1022 10 16.0934 0 0
12:56 am 00:56 Cloudy 54 12.2 44 6.7 69 69 SSE 8 13 30.18 1022 10 16.0934 0 0
1:09 am 01:09 Cloudy 54 12 45 7 72 72 SSE 9 15 30.17 1022 10 16.0934 0 0
1:27 am 01:27 Cloudy 54 12 45 7 72 72 S 7 11 30.18 1022 10 16.0934 0 0
1:45 am 01:45 Cloudy 54 12 46 8 77 77 S 8 13 30.18 1022 10 16.0934 0 0
1:52 am 01:52 Cloudy 54 12 46 8 77 77 SSE 7 11 30.18 1022 10 16.0934 0 0
1:56 am 01:56 Cloudy 54 12.2 47 8.3 77 77 S 7 11 30.18 1022 10 16.0934 0 0
2:24 am 02:24 Cloudy 54 12 50 10 88 88 SSE 7 11 30.16 1021 10 16.0934 0 0
2:56 am 02:56 Cloudy 54 12.2 50 10 87 87 S 5 7 30.16 1021 10 16.0934 0 0
3:06 am 03:06 Cloudy 54 12 50 10 88 88 S 7 11 30.16 1021 10 16.0934 0 0
3:56 am 03:56 Cloudy 54 12.2 52 11.1 93 93 S 6 9 30.14 1021 10 16.0934 0 0
4:56 am 04:56 Cloudy 54 12.2 53 11.7 97 97 S 5 7 30.14 1021 10 16.0934 0 0
5:25 am 05:25 Cloudy with Light Rain 54 12 54 12 100 100 SSE 6 9 30.13 1020 10 16.0934 0.001 0.001
5:56 am 05:56 Cloudy 54 12.2 53 11.7 97 97 SSE 7 11 30.13 1020 10 16.0934 0.001 0.001
6:21 am 06:21 Cloudy 54 12 54 12 100 100 SE 6 9 30.13 1020 10 16.0934 0.001 0.001
6:56 am 06:56 Cloudy 54 12.2 54 12.2 100 100 SSE 5 7 30.14 1021 10 16.0934 0.001 0.001
7:56 am 07:56 Cloudy 55 12.8 54 12.2 96 96 S 7 11 30.14 1021 10 16.0934 0 0
8:56 am 08:56 Cloudy with Light Rain 56 13.3 56 13.3 100 100 S 6 9 30.13 1020 10 16.0934 0.01 0.254
9:36 am 09:36 Cloudy 59 15 57 14 94 94 SSW 8 13 30.12 1020 10 16.0934 0.001 0.001
9:53 am 09:53 Cloudy 59 15 57 14 94 94 SSW 8 13 30.12 1020 10 16.0934 0.001 0.001
9:56 am 09:56 Cloudy 60 15.6 58 14.4 93 93 SSW 7 11 30.13 1020 10 16.0934 0.001 0.001
10:56 am 10:56 Mostly Cloudy 63 17.2 58 14.4 84 84 SSW 13 20 30.1 1019 10 16.0934 0 0
11:56 am 11:56 Mostly Sunny 67 19.4 60 15.6 79 79 SW 15 24 30.09 1019 10 16.0934 0.08 2.032
12:08 pm 12:08 Mostly Cloudy 66 19 61 16 83 83 SW 20 31 30.07 1018 10 16.0934 0 0
12:44 pm 12:44 Cloudy with Light Rain 64 18 61 16 88 88 SW 15 24 30.06 1018 10 16.0934 0.001 0.001
12:56 pm 12:56 Cloudy with Light Rain 64 17.8 61 16.1 90 90 SW 13 20 30.08 1019 10 16.0934 0.001 0.001
1:56 pm 13:56 Cloudy 66 18.9 62 16.7 87 87 SW 12 19 30.07 1018 10 16.0934 0.001 0.001
2:56 pm 14:56 Partly Cloudy 72 22.2 62 16.7 71 71 SSW 17 28 30.04 1017 10 16.0934 0.09 2.286
3:56 pm 15:56 Partly Cloudy 74 23.3 64 17.8 71 71 SW 15 24 30.02 1017 10 16.0934 0 0
4:56 pm 16:56 Mostly Cloudy 77 25 64 17.8 64 64 SSW 15 24 29.99 1016 10 16.0934 0.07 1.778
5:19 pm 17:19 Mostly Cloudy with Nearby Thunderstorms 75 24 63 17 65 65 WSW 26 43 29.98 1015 10 16.0934 0.02 0.508
5:31 pm 17:31 Mostly Cloudy with Nearby Thunderstorms 63 17 63 17 100 100 WNW 17 28 30.04 1017 4 6.43736 0.02 0.508
5:56 pm 17:56 Cloudy with Nearby Thunderstorms 63 17.2 62 16.7 97 97 W 13 20 30.04 1017 10 16.0934 0.08 2.032
6:06 pm 18:06 Cloudy with Light Rain 63 17 63 17 100 100 W 10 17 30 1016 10 16.0934 0.001 0.001
6:56 pm 18:56 Sunny 64 17.8 63 17.2 96 96 S 12 19 29.97 1015 10 16.0934 0.001 0.001
7:56 pm 19:56 Sunny 65 18.3 64 17.8 97 97 Calm 29.99 1016 10 16.0934 0.01 0.254
8:56 pm 20:56 Clear 60 15.6 60 15.6 100 100 ESE 6 9 30 1016 10 16.0934 0.02 0.508
9:56 pm 21:56 Mostly Clear 61 16.1 61 16.1 100 100 SE 8 13 29.99 1016 10 16.0934 0 0
10:56 pm 22:56 Clear 59 15 59 15 100 100 SE 5 7 29.98 1015 10 16.0934 0 0
11:56 pm 23:56 Clear 59 15 59 15 100 100 SSE 7 11 29.98 1015 10 16.0934 0 0

Powered by AerisWeather